Regional Weather Roundup
Issued by NWS Sioux Falls, SD

Home | Current Version | Previous Version | Graphics & Text | Print | Product List | Glossary Off
Versions: 1 2 3 4 5 6 7 8 9 10 11 12 13 14 15 16 17 18 19 20 21 22 23 24 25 26 27 28 29 30 31 32 33 34 35 36 37 38 39 40 41 42 43 44 45 46 47 48 49 50

000
ASUS43 KFSD 241210
RWRFSD

WEATHER ROUNDUP FOR SE SOUTH DAKOTA/SW MINNESOTA/NW IOWA
NATIONAL WEATHER SERVICE SIOUX FALLS SD
700 AM CDT TUE MAY 24 2016

NOTE: "FAIR" INDICATES FEW OR NO CLOUDS BELOW 12,000 FEET WITH NO
SIGNIFICANT WEATHER AND OR OBSTRUCTIONS TO VISIBILITY.


SDZ038>040-050-052>070-241300-
SOUTHEAST SOUTH DAKOTA

CITY           SKY/WX    TMP DP  RH WIND       PRES   REMARKS
BROOKINGS      FOG       60  59  96 SE8       29.82R VSB 1/4
CHAMBERLAIN    CLEAR     55  53  94 SW6       29.83R
6HR MIN TEMP:  52; 6HR MAX TEMP:  62;

HURON          FOG       58  58 100 S7        29.78R VSB<1/4
6HR MIN TEMP:  51; 6HR MAX TEMP:  62;

MADISON        FAIR      57  57 100 S8        29.82R FOG
MITCHELL       FOG       56  56 100 S7        29.82R VSB 3/4
6HR MIN TEMP:  54; 6HR MAX TEMP:  64;

SIOUX FALLS    CLOUDY    62  60  93 S8        29.84R FOG
6HR MIN TEMP:  61; 6HR MAX TEMP:  64;

WINNER         FAIR      51  43  74 S14       29.85R
YANKTON        CLOUDY    59  55  88 SE6       29.83R
$$

MNZ071-072-080-081-089-090-097-098-241300-
SOUTHWEST MINNESOTA

CITY           SKY/WX    TMP DP  RH WIND       PRES   REMARKS
FAIRMONT       CLOUDY    63  59  88 SW9       29.85R
JACKSON        CLOUDY    61  55  82 SW9       29.86S
LUVERNE          N/A     57  55  94 S5        29.85R FOG
MARSHALL       CLOUDY    64  62  93 CALM      29.82S FOG
6HR MIN TEMP:  60; 6HR MAX TEMP:  65; 6HR PCP: TRACE;

MONTEVIDEO     FOG       59  59 100 W3        29.83S VSB<1/4
PIPESTONE      FOG       63  61  94 S6        29.84R VSB 1/4
REDWOOD FALLS  MOSUNNY   61  59  93 S3        29.83R FOG
TRACY          SUNNY     64  63  94 SW16      29.82S
WINDOM         CLOUDY    63  61  94 SW7       29.85R
WORTHINGTON    CLOUDY    61  59  93 S9        29.87R
$$

IAZ001>003-012>014-020>022-031-032-NEZ013-014-SDZ071-241300-
NORTHWEST IOWA

CITY           SKY/WX    TMP DP  RH WIND       PRES   REMARKS
CHEROKEE       CLOUDY    58  58 100 S3        29.87R
DENISON        CLOUDY    61  59  94 CALM      29.87R
ESTHERVILLE    CLOUDY    60  59  96 SW9       29.86R
LE MARS        CLOUDY    63  61  94 S9G17     29.87R
ORANGE CITY    CLOUDY    61  61 100 S6        29.86R FOG
SHELDON        CLOUDY    61  61 100 S8        29.85R
SIOUX CITY     CLOUDY    61  59  93 SE5       29.88R FOG
SPENCER        CLOUDY    60  58  92 SW5       29.87R
6HR MIN TEMP:  60; 6HR MAX TEMP:  64;

STORM LAKE     CLOUDY    59  59 100 S8        29.89R
$$

ABBREVIATIONS USED IN REMARKS
   TC - TEMPERATURE IN CELSIUS
  WCI - WIND CHILL INDEX
   HX - HEAT INDEX
  VSB - VISIBILITY




USA.gov is the U.S. government's official web portal to all federal, state and local government web resources and services.